Location: Rottenacker
(48.2350°N, 9.6886°E)
Time: 15:12:36
(UTC+01:00)

N. Korean satellite - Visible Passes

Search period start: 19 November 2017 00:00
Search period end: 29 November 2017 00:00
Orbit: 460 x 515 km, 97.2° (Epoch: 18 November)

Date Brightness Start Highest point End Pass type
(mag) Time Alt. Az. Time Alt. Az. Time Alt. Az.
19 Nov 10.4 05:57:47 10° ENE 05:58:35 11° E 05:59:24 10° E visible
19 Nov 6.4 18:08:26 10° SSE 18:11:56 76° ENE 18:15:31 10° N visible
20 Nov 7.0 17:45:14 10° SE 17:48:31 39° ENE 17:51:53 10° N visible
20 Nov 9.6 19:20:01 10° SW 19:22:15 16° W 19:24:32 10° NW visible
21 Nov 8.7 06:42:07 10° NNE 06:45:32 33° E 06:48:58 10° SSE visible
21 Nov 7.7 17:22:25 10° ESE 17:25:11 22° ENE 17:28:02 10° NNE visible
21 Nov 8.6 18:55:30 10° SSW 18:58:35 28° W 19:01:45 10° NNW visible
22 Nov 9.8 06:19:11 10° NE 06:21:55 19° E 06:24:38 10° SE visible
22 Nov 7.2 18:31:33 10° S 18:35:00 55° W 18:38:34 10° NNW visible
23 Nov 10.3 05:57:20 10° ENE 05:58:12 11° E 05:59:04 10° E visible
23 Nov 6.4 18:07:59 10° SSE 18:11:30 76° ENE 18:15:08 10° N visible
24 Nov 7.3 07:04:57 10° NNE 07:08:41 62° E 07:12:24 10° S visible
24 Nov 7.0 17:44:46 10° SE 17:48:05 39° ENE 17:51:30 10° N visible
24 Nov 9.6 19:19:30 10° SW 19:21:48 16° W 19:24:09 10° NW visible
25 Nov 8.7 06:41:40 10° NNE 06:45:07 33° E 06:48:33 10° SSE visible
25 Nov 7.7 17:21:54 10° ESE 17:24:44 22° ENE 17:27:37 10° NNE visible
25 Nov 8.6 18:55:00 10° SSW 18:58:08 29° W 19:01:21 10° NNW visible
26 Nov 9.8 06:18:45 10° NE 06:21:29 19° E 06:24:12 10° SE visible
26 Nov 7.2 18:31:03 10° S 18:34:32 55° W 18:38:08 10° NNW visible
27 Nov 10.3 05:56:52 10° ENE 05:57:45 11° E 05:58:38 10° ESE visible
27 Nov 6.4 18:07:28 10° SSE 18:11:01 76° ENE 18:14:41 10° N visible
28 Nov 7.3 07:04:28 10° NNE 07:08:13 62° E 07:11:57 10° S visible
28 Nov 7.0 17:44:13 10° SE 17:47:35 39° ENE 17:51:02 10° N visible
28 Nov 9.6 19:18:56 10° SW 19:21:18 17° W 19:23:43 10° NW visible
